Time,TemperatureF,DewpointF,PressureIn,WindDirection,WindDirectionDegrees,WindSpeedMPH,WindSpeedGustMPH,Humidity,HourlyPrecipIn,Conditions,Clouds,dailyrainin,SoftwareType,DateUTC
2013-02-11 00:00:00,58.8,39.1,29.98,North,360,0.0,0.0,48,0.00,RA,,0.00,WeatherDisplay:10.37,2013-02-11 06:00:00,
2013-02-11 00:05:00,58.8,39.1,29.98,North,5,0.0,0.0,48,0.00,RA,,0.00,WeatherDisplay:10.37,2013-02-11 06:05:00,
2013-02-11 00:10:00,58.8,38.1,29.99,North,5,0.0,0.0,46,0.00,RA,,0.00,WeatherDisplay:10.37,2013-02-11 06:10:00,
2013-02-11 00:15:00,58.8,40.2,30.00,North,5,0.0,0.0,50,0.00,CLR,,0.00,WeatherDisplay:10.37,2013-02-11 06:15:00,
2013-02-11 00:20:00,58.6,40.5,30.00,North,5,0.0,0.0,51,0.00,CLR,,0.00,WeatherDisplay:10.37,2013-02-11 06:20:00,
2013-02-11 00:25:00,58.6,41.0,30.00,North,360,0.0,0.0,52,0.00,CLR,,0.00,WeatherDisplay:10.37,2013-02-11 06:25:00,
2013-02-11 00:30:00,58.5,40.4,30.00,North,5,0.0,0.0,51,0.00,CLR,,0.00,WeatherDisplay:10.37,2013-02-11 06:30:00,
2013-02-11 00:35:00,58.4,40.3,29.99,North,5,0.0,0.0,51,0.00,CLR,,0.00,WeatherDisplay:10.37,2013-02-11 06:35:00,
2013-02-11 00:40:00,58.2,40.6,29.99,North,360,0.0,0.0,52,0.00,CLR,,0.00,WeatherDisplay:10.37,2013-02-11 06:40:00,
2013-02-11 00:45:00,58.2,41.1,29.98,North,360,0.0,0.0,53,0.00,CLR,,0.00,WeatherDisplay:10.37,2013-02-11 06:45:00,
2013-02-11 00:50:00,58.1,40.6,29.98,North,5,0.0,0.0,52,0.00,CLR,,0.00,WeatherDisplay:10.37,2013-02-11 06:50:00,
2013-02-11 00:55:00,58.0,42.4,29.97,North,5,0.0,0.0,56,0.00,CLR,,0.00,WeatherDisplay:10.37,2013-02-11 06:55:00,
2013-02-11 01:00:00,57.9,42.8,29.96,North,360,0.0,0.0,57,0.00,CLR,,0.00,WeatherDisplay:10.37,2013-02-11 07:00:00,
2013-02-11 01:05:00,57.8,43.1,29.95,North,360,0.0,0.0,58,0.00,CLR,,0.00,WeatherDisplay:10.37,2013-02-11 07:05:00,
2013-02-11 01:10:00,57.5,42.4,29.94,North,5,2.3,2.3,57,0.00,CLR,,0.00,WeatherDisplay:10.37,2013-02-11 07:10:00,
2013-02-11 01:15:00,57.1,40.6,29.95,North,5,0.0,0.1,54,0.00,CLR,,0.00,WeatherDisplay:10.37,2013-02-11 07:15:00,
2013-02-11 01:20:00,56.9,40.4,29.96,North,5,0.0,0.0,54,0.00,CLR,,0.00,WeatherDisplay:10.37,2013-02-11 07:20:00,
2013-02-11 01:25:00,56.8,41.7,29.96,North,360,0.0,0.0,57,0.00,CLR,,0.00,WeatherDisplay:10.37,2013-02-11 07:25:00,
2013-02-11 01:30:00,56.8,42.2,29.96,North,5,0.0,0.0,58,0.00,CLR,,0.00,WeatherDisplay:10.37,2013-02-11 07:30:00,
2013-02-11 01:35:00,56.6,42.4,29.96,North,5,0.0,0.0,59,0.00,CLR,,0.00,WeatherDisplay:10.37,2013-02-11 07:35:00,
2013-02-11 01:40:00,56.5,42.8,29.97,North,360,0.0,0.0,60,0.00,CLR,,0.00,WeatherDisplay:10.37,2013-02-11 07:40:00,
2013-02-11 01:45:00,56.4,42.2,29.96,North,360,0.0,0.0,59,0.00,CLR,,0.00,WeatherDisplay:10.37,2013-02-11 07:45:00,
2013-02-11 01:50:00,56.3,42.1,29.96,North,5,0.0,0.0,59,0.00,CLR,,0.00,WeatherDisplay:10.37,2013-02-11 07:50:00,
2013-02-11 01:55:00,56.2,42.1,29.97,North,5,0.0,0.0,59,0.00,CLR,,0.00,WeatherDisplay:10.37,2013-02-11 07:55:00,
2013-02-11 02:00:00,56.1,41.1,29.97,North,360,0.0,0.0,57,0.00,CLR,,0.00,WeatherDisplay:10.37,2013-02-11 08:00:00,
2013-02-11 02:05:00,56.1,40.6,29.96,North,360,0.0,0.0,56,0.00,CLR,,0.00,WeatherDisplay:10.37,2013-02-11 08:05:00,
2013-02-11 02:10:00,56.3,39.9,29.95,NNE,15,2.3,2.3,54,0.00,CLR,,0.00,WeatherDisplay:10.37,2013-02-11 08:10:00,
2013-02-11 02:15:00,56.5,40.5,29.94,NNE,15,0.0,0.0,55,0.00,CLR,,0.00,WeatherDisplay:10.37,2013-02-11 08:15:00,
2013-02-11 02:20:00,56.6,41.1,29.94,NNE,14,0.0,0.0,56,0.00,CLR,,0.00,WeatherDisplay:10.37,2013-02-11 08:20:00,
2013-02-11 02:25:00,56.6,39.7,29.94,NNE,16,1.2,1.2,53,0.00,CLR,,0.00,WeatherDisplay:10.37,2013-02-11 08:25:00,
2013-02-11 02:30:00,56.7,39.7,29.94,NNE,16,0.0,0.0,53,0.00,CLR,,0.00,WeatherDisplay:10.37,2013-02-11 08:30:00,
2013-02-11 02:35:00,56.7,42.5,29.93,NNE,15,0.0,0.0,59,0.00,CLR,,0.00,WeatherDisplay:10.37,2013-02-11 08:35:00,
2013-02-11 02:40:00,56.6,42.9,29.93,NNE,16,0.0,0.0,60,0.00,CLR,,0.00,WeatherDisplay:10.37,2013-02-11 08:40:00,
2013-02-11 02:45:00,56.3,40.8,29.93,NNE,20,3.5,3.5,56,0.00,CLR,,0.00,WeatherDisplay:10.37,2013-02-11 08:45:00,
2013-02-11 02:50:00,56.3,39.9,29.93,NNE,22,0.0,0.0,54,0.00,CLR,,0.00,WeatherDisplay:10.37,2013-02-11 08:50:00,
2013-02-11 02:55:00,56.4,40.0,29.93,NNE,28,3.5,3.5,54,0.00,CLR,,0.00,WeatherDisplay:10.37,2013-02-11 08:55:00,
2013-02-11 03:00:00,56.4,40.9,29.94,NNE,28,4.6,4.6,56,0.00,CLR,,0.00,WeatherDisplay:10.37,2013-02-11 09:00:00,
2013-02-11 03:05:00,56.4,40.4,29.94,NNE,30,3.5,3.5,55,0.00,CLR,,0.00,WeatherDisplay:10.37,2013-02-11 09:05:00,
2013-02-11 03:10:00,56.4,40.4,29.94,NNE,30,0.0,0.0,55,0.00,CLR,,0.00,WeatherDisplay:10.37,2013-02-11 09:10:00,
2013-02-11 03:15:00,56.3,40.3,29.94,NNE,30,2.3,2.3,55,0.00,CLR,,0.00,WeatherDisplay:10.37,2013-02-11 09:15:00,
2013-02-11 03:20:00,56.4,40.0,29.95,NNE,30,0.0,0.0,54,0.00,CLR,,0.00,WeatherDisplay:10.37,2013-02-11 09:20:00,
2013-02-11 03:25:00,56.4,40.0,29.94,NNE,30,0.0,0.0,54,0.00,CLR,,0.00,WeatherDisplay:10.37,2013-02-11 09:25:00,
2013-02-11 03:30:00,56.5,39.6,29.94,NNE,30,0.0,0.0,53,0.00,CLR,,0.00,WeatherDisplay:10.37,2013-02-11 09:30:00,
2013-02-11 03:35:00,56.5,39.6,29.94,NNE,30,1.2,0.0,53,0.00,CLR,,0.00,WeatherDisplay:10.37,2013-02-11 09:35:00,
2013-02-11 03:40:00,56.5,39.6,29.93,NNE,32,0.0,0.0,53,0.00,CLR,,0.00,WeatherDisplay:10.37,2013-02-11 09:40:00,
2013-02-11 03:45:00,56.5,39.6,29.93,NNE,32,0.0,0.0,53,0.00,CLR,,0.00,WeatherDisplay:10.37,2013-02-11 09:45:00,
2013-02-11 03:50:00,56.4,39.5,29.93,NNE,32,0.0,0.0,53,0.00,CLR,,0.00,WeatherDisplay:10.37,2013-02-11 09:50:00,
2013-02-11 03:55:00,56.4,40.0,29.92,NE,34,2.3,0.0,54,0.00,CLR,,0.00,WeatherDisplay:10.37,2013-02-11 09:55:00,
2013-02-11 04:00:00,56.3,39.4,29.92,NE,34,0.0,0.0,53,0.00,CLR,,0.00,WeatherDisplay:10.37,2013-02-11 10:00:00,
2013-02-11 04:05:00,56.3,39.4,29.93,NE,34,0.0,0.0,53,0.00,CLR,,0.00,WeatherDisplay:10.37,2013-02-11 10:05:00,
2013-02-11 04:10:00,56.3,38.9,29.93,NE,36,0.0,0.0,52,0.00,CLR,,0.00,WeatherDisplay:10.37,2013-02-11 10:10:00,
2013-02-11 04:15:00,56.4,39.0,29.93,NE,37,0.0,0.0,52,0.00,CLR,,0.00,WeatherDisplay:10.37,2013-02-11 10:15:00,
2013-02-11 04:20:00,56.4,39.0,29.93,NE,40,0.0,0.0,52,0.00,CLR,,0.00,WeatherDisplay:10.37,2013-02-11 10:20:00,
2013-02-11 04:25:00,56.5,38.6,29.93,NE,41,3.5,3.5,51,0.00,CLR,,0.00,WeatherDisplay:10.37,2013-02-11 10:25:00,
2013-02-11 04:30:00,56.6,38.7,29.94,NE,49,0.0,0.0,51,0.00,CLR,,0.00,WeatherDisplay:10.37,2013-02-11 10:30:00,
2013-02-11 04:35:00,56.6,38.7,29.94,NE,49,0.0,0.0,51,0.00,CLR,,0.00,WeatherDisplay:10.37,2013-02-11 10:35:00,
2013-02-11 04:40:00,56.5,39.6,29.94,NE,49,0.0,0.0,53,0.00,CLR,,0.00,WeatherDisplay:10.37,2013-02-11 10:40:00,
2013-02-11 04:45:00,56.4,39.5,29.94,NE,49,2.3,2.3,53,0.00,CLR,,0.00,WeatherDisplay:10.37,2013-02-11 10:45:00,
2013-02-11 04:50:00,56.1,39.7,29.94,NE,49,0.0,0.0,54,0.00,CLR,,0.00,WeatherDisplay:10.37,2013-02-11 10:50:00,
2013-02-11 04:55:00,56.0,39.6,29.93,NE,48,0.0,0.0,54,0.00,CLR,,0.00,WeatherDisplay:10.37,2013-02-11 10:55:00,
2013-02-11 05:00:00,55.8,38.9,29.93,NE,50,0.0,0.0,53,0.00,CLR,,0.00,WeatherDisplay:10.37,2013-02-11 11:00:00,
2013-02-11 05:05:00,55.7,38.8,29.93,NE,51,1.2,1.2,53,0.00,CLR,,0.00,WeatherDisplay:10.37,2013-02-11 11:05:00,
2013-02-11 05:10:00,55.7,38.3,29.93,ENE,59,5.8,5.8,52,0.00,CLR,,0.00,WeatherDisplay:10.37,2013-02-11 11:10:00,
2013-02-11 05:15:00,55.6,37.7,29.93,ENE,74,0.0,0.0,51,0.00,CLR,,0.00,WeatherDisplay:10.37,2013-02-11 11:15:00,
2013-02-11 05:20:00,55.6,37.7,29.92,ENE,76,3.5,3.5,51,0.00,CLR,,0.00,WeatherDisplay:10.37,2013-02-11 11:20:00,
2013-02-11 05:25:00,55.5,37.7,29.92,ENE,69,4.6,4.6,51,0.00,CLR,,0.00,WeatherDisplay:10.37,2013-02-11 11:25:00,
2013-02-11 05:30:00,55.4,37.6,29.92,ENE,69,0.0,0.0,51,0.00,CLR,,0.00,WeatherDisplay:10.37,2013-02-11 11:30:00,
2013-02-11 05:35:00,55.3,37.5,29.92,East,89,3.5,3.5,51,0.00,CLR,,0.00,WeatherDisplay:10.37,2013-02-11 11:35:00,
2013-02-11 05:40:00,55.2,37.9,29.92,East,88,5.8,5.8,52,0.00,CLR,,0.00,WeatherDisplay:10.37,2013-02-11 11:40:00,
2013-02-11 05:45:00,55.2,37.9,29.93,East,86,3.5,3.5,52,0.00,CLR,,0.00,WeatherDisplay:10.37,2013-02-11 11:45:00,
2013-02-11 05:50:00,55.1,37.8,29.92,ENE,75,3.5,3.5,52,0.00,CLR,,0.00,WeatherDisplay:10.37,2013-02-11 11:50:00,
2013-02-11 05:55:00,55.0,37.7,29.92,ENE,69,3.5,3.5,52,0.00,CLR,,0.00,WeatherDisplay:10.37,2013-02-11 11:55:00,
2013-02-11 06:00:00,54.9,37.6,29.92,ENE,70,3.0,3.0,52,0.00,CLR,,0.00,WeatherDisplay:10.37,2013-02-11 12:00:00,
2013-02-11 06:05:00,54.8,37.5,29.93,ENE,78,0.0,0.0,52,0.00,CLR,,0.00,WeatherDisplay:10.37,2013-02-11 12:05:00,
2013-02-11 06:10:00,54.8,38.0,29.93,ENE,78,0.0,0.0,53,0.00,CLR,,0.00,WeatherDisplay:10.37,2013-02-11 12:10:00,
2013-02-11 06:15:00,54.6,37.8,29.93,ENE,76,3.5,3.5,53,0.00,CLR,,0.00,WeatherDisplay:10.37,2013-02-11 12:15:00,
2013-02-11 06:20:00,54.5,38.2,29.94,ENE,76,3.5,3.5,54,0.00,CLR,,0.00,WeatherDisplay:10.37,2013-02-11 12:20:00,
2013-02-11 06:25:00,54.4,38.1,29.94,ENE,78,5.8,5.8,54,0.00,CLR,,0.00,WeatherDisplay:10.37,2013-02-11 12:25:00,
2013-02-11 06:30:00,54.3,38.0,29.94,ENE,78,0.0,0.0,54,0.00,CLR,,0.00,WeatherDisplay:10.37,2013-02-11 12:30:00,
2013-02-11 06:35:00,54.2,38.4,29.94,ENE,78,0.0,0.0,55,0.00,CLR,,0.00,WeatherDisplay:10.37,2013-02-11 12:35:00,
2013-02-11 06:40:00,54.1,38.3,29.95,ENE,78,0.0,0.0,55,0.00,CLR,,0.00,WeatherDisplay:10.37,2013-02-11 12:40:00,
2013-02-11 06:45:00,54.0,38.2,29.95,ENE,78,0.0,0.0,55,0.00,CLR,,0.00,WeatherDisplay:10.37,2013-02-11 12:45:00,
2013-02-11 06:50:00,53.9,38.6,29.95,ENE,78,0.0,0.0,56,0.00,CLR,,0.00,WeatherDisplay:10.37,2013-02-11 12:50:00,
2013-02-11 06:55:00,53.9,38.6,29.96,ENE,78,2.3,2.3,56,0.00,CLR,,0.00,WeatherDisplay:10.37,2013-02-11 12:55:00,
2013-02-11 07:00:00,53.9,39.0,29.96,ENE,74,4.0,4.0,57,0.00,CLR,,0.00,WeatherDisplay:10.37,2013-02-11 13:00:00,
2013-02-11 07:05:00,53.8,38.9,29.97,ENE,74,0.0,0.0,57,0.00,CLR,,0.00,WeatherDisplay:10.37,2013-02-11 13:05:00,
2013-02-11 07:10:00,53.8,40.7,29.96,ENE,74,0.0,0.0,61,0.01,RA,,0.01,WeatherDisplay:10.37,2013-02-11 13:10:00,
2013-02-11 07:15:00,53.7,42.2,29.96,ENE,71,0.0,0.0,65,0.02,RA,,0.02,WeatherDisplay:10.37,2013-02-11 13:15:00,
2013-02-11 07:20:00,53.5,42.4,29.96,ENE,71,0.0,0.0,66,0.02,RA,,0.02,WeatherDisplay:10.37,2013-02-11 13:20:00,
2013-02-11 07:25:00,53.1,43.2,29.95,ENE,71,0.0,0.0,69,0.02,CLR,,0.02,WeatherDisplay:10.37,2013-02-11 13:25:00,
2013-02-11 07:30:00,52.6,43.5,29.95,ENE,71,0.0,0.0,71,0.02,CLR,,0.02,WeatherDisplay:10.37,2013-02-11 13:30:00,
2013-02-11 07:35:00,52.3,43.5,29.97,ENE,71,0.0,0.0,72,0.02,CLR,,0.02,WeatherDisplay:10.37,2013-02-11 13:35:00,
2013-02-11 07:40:00,52.0,43.6,29.98,ENE,71,3.5,3.5,73,0.02,CLR,,0.02,WeatherDisplay:10.37,2013-02-11 13:40:00,
2013-02-11 07:45:00,51.6,43.6,29.98,ENE,69,0.0,0.0,74,0.02,CLR,,0.02,WeatherDisplay:10.37,2013-02-11 13:45:00,
2013-02-11 07:50:00,51.5,43.5,29.98,ENE,70,0.0,0.3,74,0.02,CLR,,0.02,WeatherDisplay:10.37,2013-02-11 13:50:00,
2013-02-11 07:55:00,51.4,43.4,29.97,ENE,69,0.0,0.0,74,0.02,CLR,,0.02,WeatherDisplay:10.37,2013-02-11 13:55:00,
2013-02-11 08:00:00,51.5,43.1,29.98,ENE,70,0.0,0.0,73,0.02,CLR,,0.02,WeatherDisplay:10.37,2013-02-11 14:00:00,
2013-02-11 08:05:00,51.7,43.7,30.01,ENE,69,3.5,3.5,74,0.02,CLR,,0.02,WeatherDisplay:10.37,2013-02-11 14:05:00,
2013-02-11 08:10:00,51.9,43.2,30.00,ENE,62,0.0,0.0,72,0.01,CLR,,0.02,WeatherDisplay:10.37,2013-02-11 14:10:00,
2013-02-11 08:15:00,52.1,43.3,29.99,ENE,61,2.3,2.3,72,0.00,CLR,,0.02,WeatherDisplay:10.37,2013-02-11 14:15:00,
2013-02-11 08:20:00,52.2,43.1,29.98,ENE,61,1.2,1.2,71,0.00,CLR,,0.02,WeatherDisplay:10.37,2013-02-11 14:20:00,
2013-02-11 08:25:00,52.4,42.9,29.99,ENE,61,0.0,0.0,70,0.00,CLR,,0.02,WeatherDisplay:10.37,2013-02-11 14:25:00,
2013-02-11 08:30:00,52.5,42.6,29.99,ENE,57,3.5,3.5,69,0.00,CLR,,0.02,WeatherDisplay:10.37,2013-02-11 14:30:00,
2013-02-11 08:35:00,52.7,42.8,29.99,NE,55,0.0,0.0,69,0.00,CLR,,0.02,WeatherDisplay:10.37,2013-02-11 14:35:00,
2013-02-11 08:40:00,52.8,42.5,29.99,NE,55,1.2,0.0,68,0.00,CLR,,0.02,WeatherDisplay:10.37,2013-02-11 14:40:00,
2013-02-11 08:45:00,52.8,42.9,29.99,NE,54,0.0,0.0,69,0.00,CLR,,0.02,WeatherDisplay:10.37,2013-02-11 14:45:00,
2013-02-11 08:50:00,52.9,42.6,29.99,NE,52,0.0,0.0,68,0.00,CLR,,0.02,WeatherDisplay:10.37,2013-02-11 14:50:00,
2013-02-11 08:55:00,53.1,42.8,30.00,NE,41,3.5,0.0,68,0.00,CLR,,0.02,WeatherDisplay:10.37,2013-02-11 14:55:00,
2013-02-11 09:00:00,53.3,42.6,30.00,NE,40,3.5,3.5,67,0.00,CLR,,0.02,WeatherDisplay:10.37,2013-02-11 15:00:00,
2013-02-11 09:05:00,53.5,42.8,30.01,NE,39,0.0,0.0,67,0.00,CLR,,0.02,WeatherDisplay:10.37,2013-02-11 15:05:00,
2013-02-11 09:10:00,53.6,42.5,30.00,NE,34,0.0,0.0,66,0.00,CLR,,0.02,WeatherDisplay:10.37,2013-02-11 15:10:00,
2013-02-11 09:15:00,53.7,42.6,30.01,NNE,32,4.6,4.6,66,0.00,CLR,,0.02,WeatherDisplay:10.37,2013-02-11 15:15:00,
2013-02-11 09:20:00,53.8,42.7,30.00,NNE,32,6.9,6.9,66,0.00,CLR,,0.02,WeatherDisplay:10.37,2013-02-11 15:20:00,
2013-02-11 09:25:00,54.0,42.5,30.00,NNE,32,4.6,4.6,65,0.00,CLR,,0.02,WeatherDisplay:10.37,2013-02-11 15:25:00,
2013-02-11 09:30:00,54.2,42.3,30.00,NNE,31,8.1,8.1,64,0.00,CLR,,0.02,WeatherDisplay:10.37,2013-02-11 15:30:00,
2013-02-11 09:35:00,54.4,42.5,30.00,NE,38,4.6,4.6,64,0.00,CLR,,0.02,WeatherDisplay:10.37,2013-02-11 15:35:00,
2013-02-11 09:40:00,54.5,42.2,30.00,ENE,69,5.8,5.8,63,0.00,CLR,,0.02,WeatherDisplay:10.37,2013-02-11 15:40:00,
2013-02-11 09:45:00,54.6,42.7,30.00,ENE,65,6.9,6.9,64,0.00,CLR,,0.02,WeatherDisplay:10.37,2013-02-11 15:45:00,
2013-02-11 09:50:00,54.6,42.3,30.01,ENE,72,6.9,6.9,63,0.00,CLR,,0.02,WeatherDisplay:10.37,2013-02-11 15:50:00,
2013-02-11 09:55:00,54.7,42.8,30.02,ENE,71,6.9,6.9,64,0.00,CLR,,0.02,WeatherDisplay:10.37,2013-02-11 15:55:00,
2013-02-11 10:00:00,54.8,42.9,30.02,NNE,13,0.0,0.0,64,0.00,CLR,,0.02,WeatherDisplay:10.37,2013-02-11 16:00:00,
2013-02-11 10:05:00,54.8,42.9,30.02,NNE,15,2.3,2.3,64,0.00,CLR,,0.02,WeatherDisplay:10.37,2013-02-11 16:05:00,
2013-02-11 10:10:00,54.8,42.9,30.02,NNE,18,0.0,0.1,64,0.00,CLR,,0.02,WeatherDisplay:10.37,2013-02-11 16:10:00,
2013-02-11 10:15:00,54.8,42.9,30.02,NNE,20,3.5,3.5,64,0.00,CLR,,0.02,WeatherDisplay:10.37,2013-02-11 16:15:00,
2013-02-11 10:20:00,54.9,43.4,30.02,NNE,21,0.0,0.0,65,0.00,CLR,,0.02,WeatherDisplay:10.37,2013-02-11 16:20:00,
2013-02-11 10:25:00,54.9,43.4,30.02,NNE,27,1.2,0.0,65,0.00,CLR,,0.02,WeatherDisplay:10.37,2013-02-11 16:25:00,
2013-02-11 10:30:00,55.0,44.2,30.02,NNE,30,0.0,0.0,67,0.00,CLR,,0.02,WeatherDisplay:10.37,2013-02-11 16:30:00,
2013-02-11 10:35:00,55.3,44.5,30.02,NNE,30,2.3,0.0,67,0.00,CLR,,0.02,WeatherDisplay:10.37,2013-02-11 16:35:00,
2013-02-11 10:40:00,55.4,44.2,30.02,NE,50,5.8,5.8,66,0.00,CLR,,0.02,WeatherDisplay:10.37,2013-02-11 16:40:00,
2013-02-11 10:45:00,55.4,43.8,30.01,ENE,69,9.2,9.2,65,0.00,CLR,,0.02,WeatherDisplay:10.37,2013-02-11 16:45:00,
2013-02-11 10:50:00,55.5,43.9,30.01,NE,46,5.8,5.8,65,0.00,CLR,,0.02,WeatherDisplay:10.37,2013-02-11 16:50:00,
2013-02-11 10:55:00,55.9,44.3,30.01,East,88,6.9,6.9,65,0.00,CLR,,0.02,WeatherDisplay:10.37,2013-02-11 16:55:00,
2013-02-11 11:00:00,56.0,44.4,30.01,ENE,74,6.9,6.9,65,0.00,CLR,,0.02,WeatherDisplay:10.37,2013-02-11 17:00:00,
2013-02-11 11:05:00,56.0,44.0,30.01,ENE,69,9.2,9.2,64,0.00,CLR,,0.02,WeatherDisplay:10.37,2013-02-11 17:05:00,
2013-02-11 11:10:00,56.0,44.4,30.01,East,96,5.8,5.8,65,0.00,CLR,,0.02,WeatherDisplay:10.37,2013-02-11 17:10:00,
2013-02-11 11:15:00,56.0,44.4,30.02,East,80,2.3,2.3,65,0.00,CLR,,0.02,WeatherDisplay:10.37,2013-02-11 17:15:00,
2013-02-11 11:20:00,56.1,44.5,30.01,East,80,4.6,4.6,65,0.00,CLR,,0.02,WeatherDisplay:10.37,2013-02-11 17:20:00,
2013-02-11 11:25:00,56.3,45.1,30.01,East,80,0.0,0.0,66,0.00,CLR,,0.02,WeatherDisplay:10.37,2013-02-11 17:25:00,
2013-02-11 11:30:00,56.5,44.9,30.01,ENE,78,0.0,0.0,65,0.00,CLR,,0.02,WeatherDisplay:10.37,2013-02-11 17:30:00,
2013-02-11 11:35:00,56.7,45.1,30.01,ENE,78,3.5,0.0,65,0.00,CLR,,0.02,WeatherDisplay:10.37,2013-02-11 17:35:00,
2013-02-11 11:40:00,56.9,44.8,30.01,ENE,77,0.0,0.0,64,0.00,CLR,,0.02,WeatherDisplay:10.37,2013-02-11 17:40:00,
2013-02-11 11:45:00,57.1,45.0,30.01,ENE,76,3.5,0.0,64,0.00,CLR,,0.02,WeatherDisplay:10.37,2013-02-11 17:45:00,
2013-02-11 11:50:00,57.2,45.5,30.01,ENE,76,1.2,0.0,65,0.00,CLR,,0.02,WeatherDisplay:10.37,2013-02-11 17:50:00,
2013-02-11 11:55:00,57.2,45.9,30.01,ENE,74,0.0,0.2,66,0.00,CLR,,0.02,WeatherDisplay:10.37,2013-02-11 17:55:00,
2013-02-11 12:00:00,57.2,45.9,30.01,ENE,73,0.0,0.0,66,0.00,CLR,,0.02,WeatherDisplay:10.37,2013-02-11 18:00:00,
2013-02-11 12:05:00,57.2,45.9,30.00,NE,53,6.9,6.9,66,0.00,CLR,,0.02,WeatherDisplay:10.37,2013-02-11 18:05:00,
2013-02-11 12:10:00,57.3,46.4,30.00,North,360,10.4,10.4,67,0.00,CLR,,0.02,WeatherDisplay:10.37,2013-02-11 18:10:00,
2013-02-11 12:11:00,57.3,46.4,30.00,North,360,6.9,6.9,67,0.00,CLR,,0.02,WeatherDisplay:10.37,2013-02-11 18:11:00,
2013-02-11 12:15:00,57.3,46.4,30.00,North,360,6.9,6.9,67,0.00,CLR,,0.02,WeatherDisplay:10.37,2013-02-11 18:15:00,
2013-02-11 12:20:00,57.3,46.4,30.00,North,360,6.9,6.9,67,0.00,CLR,,0.02,WeatherDisplay:10.37,2013-02-11 18:20:00,
2013-02-11 13:09:00,57.3,46.4,30.00,North,360,6.9,6.9,67,0.00,CLR,,0.02,WeatherDisplay:10.37,2013-02-11 19:09:00,
2013-02-11 13:14:00,57.3,46.4,30.00,North,360,6.9,6.9,67,0.00,CLR,,0.02,WeatherDisplay:10.37,2013-02-11 19:14:00,